Location: Splawn
(30.9202°N, 96.9858°W)
Time: 11:19:05
(UTC+00:00)

Transit 2A Rocket - Pass Details

Date: 06 March 2020
Orbit: 588 x 915 km, 66.7° (Epoch: 07 April)

Event Time Altitude Azimuth Distance (km) Brightness Sun altitude
Rises 02:09:01 0° 238° (WSW) 2,805 8.7 -22.1°
Reaches altitude 10° 02:11:42 10° 255° (WSW) 1,915 8.0 -22.6°
Maximum altitude 02:14:53 20° 304° (NW) 1,396 7.1 -23.3°
Drops below altitude 10° 02:18:11 10° 352° (N) 1,982 7.3 -24.0°
Sets 02:21:01 0° 9° (N) 2,937 8.0 -24.6°
